| time (UTC) | temp F | wind direction | speed MPH | gust MPH | rain 1hr in | rain 24hr in | rain mn in | humidity % | barometer mb |
| 20260505082000 | 37 | 153 | 1.0 | 6.0 | 0.00 | 0.02 | 0.00 | 65 | 1013.6 |
| 20260505081501 | 37 | 147 | 2.0 | 6.0 | 0.00 | 0.03 | 0.00 | 64 | 1013.4 |
| 20260505080959 | 37 | 148 | 3.0 | 6.0 | 0.00 | 0.03 | 0.00 | 63 | 1013.5 |
| 20260505080459 | 37 | 152 | 2.0 | 6.0 | 0.00 | 0.05 | 0.00 | 63 | 1013.6 |
| 20260505075953 | 37 | 150 | 1.0 | 5.0 | 0.00 | 0.05 | 0.00 | 64 | 1013.8 |
| 20260505075451 | 37 | 157 | 1.0 | 5.0 | 0.00 | 0.06 | 0.00 | 64 | 1013.9 |
| 20260505075221 | 37 | 159 | 2.0 | 5.0 | 0.00 | 0.06 | 0.00 | 64 | 1013.9 |
| 20260505074447 | 37 | 165 | 2.0 | 5.0 | 0.00 | 0.06 | 0.00 | 65 | 1014.0 |
| 20260505073947 | 37 | 191 | 2.0 | 5.0 | 0.00 | 0.07 | 0.00 | 64 | 1014.0 |
| 20260505073445 | 38 | 169 | 2.0 | 6.0 | 0.00 | 0.07 | 0.00 | 64 | 1013.9 |
| 20260505072944 | 38 | 161 | 3.0 | 7.0 | 0.00 | 0.07 | 0.00 | 63 | 1013.9 |
| 20260505072445 | 38 | 171 | 3.0 | 7.0 | 0.00 | 0.07 | 0.00 | 62 | 1013.9 |
| 20260505071945 | 38 | 203 | 3.0 | 7.0 | 0.00 | 0.07 | 0.00 | 62 | 1013.9 |
| 20260505071445 | 38 | 150 | 3.0 | 7.0 | 0.00 | 0.07 | 0.00 | 61 | 1014.0 |
| 20260505070945 | 38 | 157 | 3.0 | 6.0 | 0.00 | 0.07 | 0.00 | 61 | 1014.2 |
| 20260505070445 | 39 | 173 | 2.0 | 6.0 | 0.00 | 0.07 | 0.00 | 61 | 1014.2 |
| 20260505070211 | 38 | 155 | 3.0 | 9.0 | 0.00 | 0.07 | 0.00 | 60 | 1014.2 |
| 20260505065441 | 38 | 175 | 3.0 | 9.0 | 0.00 | 0.07 | 0.00 | 60 | 1014.2 |
| 20260505064938 | 38 | 173 | 3.0 | 6.0 | 0.00 | 0.07 | 0.00 | 59 | 1014.0 |
| 20260505064439 | 38 | 207 | 3.0 | 6.0 | 0.00 | 0.07 | 0.00 | 61 | 1014.0 |
| 20260505063939 | 38 | 243 | 2.0 | 4.0 | 0.00 | 0.07 | 0.00 | 61 | 1014.2 |
| 20260505063439 | 38 | 171 | 2.0 | 5.0 | 0.00 | 0.07 | 0.00 | 60 | 1014.2 |
| 20260505062936 | 38 | 233 | 2.0 | 5.0 | 0.00 | 0.07 | 0.00 | 60 | 1014.3 |
| 20260505062436 | 38 | 192 | 1.0 | 3.0 | 0.00 | 0.07 | 0.00 | 59 | 1014.2 |
| 20260505061936 | 38 | 210 | 2.0 | 6.0 | 0.00 | 0.07 | 0.00 | 59 | 1014.3 |
| 20260505061436 | 38 | 223 | 3.0 | 6.0 | 0.00 | 0.07 | 0.00 | 58 | 1014.2 |
| 20260505061212 | 39 | 171 | 4.0 | 6.0 | 0.00 | 0.07 | 0.00 | 58 | 1014.0 |
| 20260505060935 | 38 | 190 | 3.0 | 6.0 | 0.00 | 0.07 | 0.00 | 60 | 1014.2 |
| 20260505055937 | 39 | 130 | 4.0 | 7.0 | 0.00 | 0.07 | 0.07 | 58 | 1014.2 |
| 20260505055433 | 39 | 174 | 4.0 | 7.0 | 0.00 | 0.07 | 0.07 | 56 | 1014.2 |
| 20260505054932 | 38 | 161 | 3.0 | 7.0 | 0.00 | 0.07 | 0.07 | 58 | 1014.3 |
| 20260505054703 | 38 | 159 | 2.0 | 5.0 | 0.00 | 0.07 | 0.07 | 58 | 1014.3 |
| 20260505054203 | 38 | 161 | 2.0 | 5.0 | 0.00 | 0.07 | 0.07 | 58 | 1014.2 |
| 20260505053432 | 39 | 161 | 3.0 | 5.0 | 0.00 | 0.07 | 0.07 | 58 | 1014.3 |
| 20260505052931 | 39 | 166 | 4.0 | 6.0 | 0.00 | 0.07 | 0.07 | 57 | 1014.3 |
| 20260505052423 | 39 | 163 | 3.0 | 7.0 | 0.00 | 0.07 | 0.07 | 57 | 1014.4 |
| 20260505052155 | 39 | 156 | 2.0 | 7.0 | 0.00 | 0.07 | 0.07 | 56 | 1014.4 |
| 20260505051425 | 40 | 209 | 2.0 | 4.0 | 0.00 | 0.07 | 0.07 | 56 | 1014.4 |
| 20260505050925 | 41 | 161 | 2.0 | 4.0 | 0.00 | 0.07 | 0.07 | 53 | 1014.5 |
| 20260505050425 | 42 | 162 | 3.0 | 5.0 | 0.00 | 0.07 | 0.07 | 46 | 1014.5 |
| 20260505050155 | 42 | 199 | 3.0 | 5.0 | 0.00 | 0.07 | 0.07 | 46 | 1014.5 |
| 20260505041414 | 42 | 246 | 3.0 | 5.0 | 0.00 | 0.07 | 0.07 | 44 | 1014.9 |
| 20260505040913 | 42 | 250 | 3.0 | 5.0 | 0.00 | 0.07 | 0.07 | 43 | 1014.9 |
| 20260505040415 | 43 | 249 | 4.0 | 5.0 | 0.00 | 0.07 | 0.07 | 43 | 1014.8 |
| 20260505035913 | 43 | 248 | 2.0 | 5.0 | 0.00 | 0.07 | 0.07 | 42 | 1014.8 |
| 20260505035414 | 44 | 234 | 0.0 | 5.0 | 0.00 | 0.07 | 0.07 | 42 | 1014.7 |
| 20260505034915 | 44 | 172 | 0.0 | 3.0 | 0.00 | 0.07 | 0.07 | 41 | 1014.7 |
| 20260505034409 | 45 | 202 | 1.0 | 4.0 | 0.00 | 0.07 | 0.07 | 41 | 1014.7 |
| 20260505033903 | 45 | 250 | 3.0 | 5.0 | 0.00 | 0.07 | 0.07 | 40 | 1014.7 |
| 20260505033403 | 46 | 202 | 4.0 | 7.0 | 0.00 | 0.07 | 0.07 | 36 | 1014.8 |
| 20260505033357 | 46 | 223 | 4.0 | 6.0 | 0.00 | 0.07 | 0.07 | 37 | 1014.8 |
| 20260505032357 | 45 | 212 | 4.0 | 7.0 | 0.00 | 0.07 | 0.07 | 39 | 1014.8 |
| 20260505031859 | 45 | 215 | 3.0 | 5.0 | 0.00 | 0.07 | 0.07 | 38 | 1014.7 |
| 20260505031358 | 45 | 209 | 3.0 | 5.0 | 0.00 | 0.07 | 0.07 | 39 | 1014.5 |
| 20260505030858 | 45 | 246 | 3.0 | 6.0 | 0.00 | 0.07 | 0.07 | 40 | 1014.4 |
| 20260505030354 | 46 | 249 | 4.0 | 8.0 | 0.00 | 0.07 | 0.07 | 39 | 1014.4 |
| 20260505025855 | 47 | 260 | 4.0 | 9.0 | 0.00 | 0.07 | 0.07 | 35 | 1014.3 |
| 20260505025625 | 47 | 246 | 5.0 | 9.0 | 0.00 | 0.07 | 0.07 | 35 | 1014.3 |
| 20260505024853 | 47 | 209 | 5.0 | 8.0 | 0.00 | 0.07 | 0.07 | 35 | 1014.4 |
| 20260505024354 | 47 | 214 | 4.0 | 7.0 | 0.00 | 0.07 | 0.07 | 35 | 1014.2 |
| 20260505023854 | 47 | 213 | 5.0 | 7.0 | 0.00 | 0.07 | 0.07 | 35 | 1014.2 |
| 20260505023354 | 48 | 195 | 5.0 | 9.0 | 0.00 | 0.07 | 0.07 | 34 | 1014.0 |
| 20260505023349 | 48 | 215 | 5.0 | 9.0 | 0.00 | 0.07 | 0.07 | 35 | 1014.0 |
| 20260505022349 | 48 | 205 | 5.0 | 11.0 | 0.00 | 0.07 | 0.07 | 35 | 1013.9 |
| 20260505021850 | 49 | 174 | 6.0 | 11.0 | 0.00 | 0.07 | 0.07 | 33 | 1013.9 |
| 20260505021355 | 49 | 182 | 6.0 | 10.0 | 0.00 | 0.07 | 0.07 | 34 | 1014.0 |
| 20260505021351 | 49 | 188 | 6.0 | 10.0 | 0.00 | 0.07 | 0.07 | 34 | 1014.2 |
| 20260505020345 | 49 | 193 | 6.0 | 12.0 | 0.00 | 0.07 | 0.07 | 34 | 1014.0 |
| 20260505020117 | 49 | 184 | 6.0 | 12.0 | 0.00 | 0.07 | 0.07 | 34 | 1014.0 |
| 20260505015346 | 49 | 198 | 7.0 | 12.0 | 0.00 | 0.07 | 0.07 | 35 | 1014.0 |
| 20260505014846 | 49 | 169 | 8.0 | 12.0 | 0.00 | 0.07 | 0.07 | 34 | 1014.0 |
| 20260505014346 | 49 | 190 | 8.0 | 12.0 | 0.00 | 0.07 | 0.07 | 34 | 1013.9 |
| 20260505013847 | 50 | 193 | 8.0 | 14.0 | 0.00 | 0.07 | 0.07 | 35 | 1013.8 |
| 20260505013612 | 50 | 197 | 8.0 | 14.0 | 0.00 | 0.07 | 0.07 | 34 | 1013.8 |
| 20260505013114 | 50 | 183 | 8.0 | 17.0 | 0.00 | 0.07 | 0.07 | 35 | 1013.8 |
| 20260505012341 | 50 | 178 | 9.0 | 17.0 | 0.00 | 0.07 | 0.07 | 35 | 1013.6 |
| 20260505011842 | 50 | 202 | 8.0 | 18.0 | 0.00 | 0.07 | 0.07 | 35 | 1013.6 |
| 20260505011341 | 51 | 205 | 9.0 | 21.0 | 0.00 | 0.07 | 0.07 | 35 | 1013.4 |
| 20260505010842 | 51 | 193 | 10.0 | 21.0 | 0.00 | 0.07 | 0.07 | 34 | 1013.5 |
| 20260505010342 | 51 | 168 | 10.0 | 18.0 | 0.00 | 0.07 | 0.07 | 36 | 1013.4 |
| 20260505005842 | 51 | 207 | 11.0 | 18.0 | 0.00 | 0.07 | 0.07 | 36 | 1013.4 |
| 20260505005342 | 51 | 194 | 12.0 | 24.0 | 0.00 | 0.07 | 0.07 | 35 | 1013.6 |
| 20260505004837 | 51 | 202 | 11.0 | 24.0 | 0.00 | 0.07 | 0.07 | 36 | 1013.6 |
| 20260505004337 | 52 | 208 | 11.0 | 19.0 | 0.00 | 0.07 | 0.07 | 36 | 1013.6 |
| 20260505003837 | 52 | 202 | 11.0 | 19.0 | 0.00 | 0.07 | 0.07 | 36 | 1013.5 |
| 20260505003338 | 52 | 189 | 11.0 | 27.0 | 0.00 | 0.07 | 0.07 | 37 | 1013.5 |
| 20260505002835 | 52 | 188 | 12.0 | 27.0 | 0.00 | 0.07 | 0.07 | 37 | 1013.6 |
| 20260505002337 | 52 | 215 | 12.0 | 20.0 | 0.00 | 0.07 | 0.07 | 37 | 1013.6 |
| 20260505001836 | 52 | 203 | 11.0 | 16.0 | 0.00 | 0.07 | 0.07 | 37 | 1013.6 |
| 20260505001332 | 52 | 190 | 11.0 | 20.0 | 0.00 | 0.07 | 0.07 | 38 | 1013.8 |
| 20260505000833 | 52 | 207 | 11.0 | 20.0 | 0.00 | 0.07 | 0.07 | 37 | 1013.8 |
| 20260505000331 | 53 | 202 | 11.0 | 20.0 | 0.00 | 0.07 | 0.07 | 37 | 1013.9 |
| 20260504235831 | 53 | 188 | 10.0 | 20.0 | 0.00 | 0.07 | 0.07 | 38 | 1013.6 |
| 20260504235332 | 53 | 174 | 11.0 | 18.0 | 0.00 | 0.07 | 0.07 | 37 | 1013.9 |
| 20260504234833 | 53 | 200 | 11.0 | 20.0 | 0.00 | 0.07 | 0.07 | 37 | 1013.6 |
| 20260504234332 | 53 | 160 | 10.0 | 20.0 | 0.00 | 0.07 | 0.07 | 37 | 1013.6 |
| 20260504234056 | 53 | 219 | 11.0 | 19.0 | 0.00 | 0.07 | 0.07 | 37 | 1013.9 |
| 20260504233325 | 53 | 198 | 12.0 | 21.0 | 0.00 | 0.07 | 0.07 | 36 | 1013.8 |
| 20260504233053 | 54 | 171 | 12.0 | 21.0 | 0.00 | 0.07 | 0.07 | 36 | 1013.8 |
| 20260504232324 | 54 | 177 | 12.0 | 20.0 | 0.00 | 0.07 | 0.07 | 36 | 1013.5 |
| 20260504231822 | 54 | 169 | 11.0 | 20.0 | 0.00 | 0.07 | 0.07 | 37 | 1013.5 |
| 20260504231321 | 55 | 205 | 9.0 | 20.0 | 0.00 | 0.07 | 0.07 | 36 | 1013.4 |
| 20260504230815 | 56 | 176 | 10.0 | 18.0 | 0.00 | 0.07 | 0.07 | 36 | 1013.4 |
| 20260504230317 | 56 | 198 | 11.0 | 23.0 | 0.00 | 0.07 | 0.07 | 36 | 1013.5 |
| 20260504230048 | 55 | 183 | 10.0 | 23.0 | 0.00 | 0.07 | 0.07 | 37 | 1013.4 |
| 20260504225315 | 55 | 200 | 11.0 | 20.0 | 0.00 | 0.07 | 0.07 | 37 | 1013.5 |
| 20260504224815 | 54 | 190 | 11.0 | 20.0 | 0.00 | 0.07 | 0.07 | 38 | 1013.5 |
| 20260504224316 | 55 | 177 | 11.0 | 26.0 | 0.00 | 0.07 | 0.07 | 38 | 1013.5 |
| 20260504223815 | 55 | 192 | 12.0 | 26.0 | 0.00 | 0.07 | 0.07 | 37 | 1013.5 |
| 20260504223540 | 54 | 177 | 12.0 | 23.0 | 0.00 | 0.07 | 0.07 | 39 | 1013.5 |
| 20260504222807 | 55 | 178 | 12.0 | 23.0 | 0.00 | 0.07 | 0.07 | 38 | 1013.5 |
| 20260504222308 | 55 | 174 | 12.0 | 23.0 | 0.00 | 0.07 | 0.07 | 39 | 1013.6 |
| 20260504221809 | 55 | 200 | 12.0 | 23.0 | 0.00 | 0.07 | 0.07 | 39 | 1013.5 |
| 20260504221314 | 55 | 174 | 13.0 | 21.0 | 0.00 | 0.07 | 0.07 | 40 | 1013.6 |
| 20260504221309 | 55 | 168 | 12.0 | 20.0 | 0.00 | 0.07 | 0.07 | 39 | 1013.6 |
| 20260504220538 | 55 | 213 | 13.0 | 24.0 | 0.00 | 0.07 | 0.07 | 41 | 1013.6 |
| 20260504215804 | 55 | 191 | 12.0 | 24.0 | 0.00 | 0.07 | 0.07 | 42 | 1013.8 |
| 20260504215304 | 55 | 169 | 13.0 | 26.0 | 0.00 | 0.07 | 0.07 | 41 | 1013.9 |
| 20260504215034 | 54 | 207 | 14.0 | 26.0 | 0.00 | 0.07 | 0.07 | 41 | 1014.0 |
| 20260504214302 | 55 | 190 | 14.0 | 22.0 | 0.00 | 0.07 | 0.07 | 41 | 1014.0 |
| 20260504213802 | 55 | 209 | 14.0 | 23.0 | 0.00 | 0.07 | 0.07 | 42 | 1014.0 |
| 20260504213256 | 55 | 192 | 14.0 | 23.0 | 0.00 | 0.07 | 0.07 | 42 | 1014.0 |
| 20260504212757 | 55 | 198 | 14.0 | 24.0 | 0.00 | 0.07 | 0.07 | 41 | 1014.0 |
| 20260504212257 | 55 | 165 | 14.0 | 24.0 | 0.00 | 0.07 | 0.07 | 43 | 1014.0 |
| 20260504211756 | 55 | 216 | 14.0 | 24.0 | 0.00 | 0.07 | 0.07 | 44 | 1014.0 |
| 20260504211256 | 54 | 180 | 15.0 | 23.0 | 0.00 | 0.07 | 0.07 | 43 | 1014.4 |
| 20260504210756 | 54 | 183 | 15.0 | 23.0 | 0.00 | 0.07 | 0.07 | 42 | 1014.4 |
| 20260504210250 | 54 | 196 | 14.0 | 23.0 | 0.00 | 0.07 | 0.07 | 41 | 1014.4 |
| 20260504205751 | 55 | 204 | 14.0 | 27.0 | 0.00 | 0.07 | 0.07 | 41 | 1014.4 |
| 20260504205250 | 55 | 221 | 13.0 | 27.0 | 0.00 | 0.07 | 0.07 | 39 | 1014.4 |
| 20260504204750 | 55 | 181 | 13.0 | 23.0 | 0.00 | 0.07 | 0.07 | 42 | 1014.5 |
| 20260504204250 | 55 | 185 | 13.0 | 22.0 | 0.00 | 0.07 | 0.07 | 41 | 1014.7 |
| 20260504203750 | 56 | 205 | 12.0 | 22.0 | 0.00 | 0.07 | 0.07 | 41 | 1014.3 |
| 20260504203515 | 56 | 190 | 11.0 | 18.0 | 0.00 | 0.07 | 0.07 | 44 | 1014.7 |
| 20260504202744 | 55 | 214 | 12.0 | 21.0 | 0.00 | 0.07 | 0.07 | 42 | 1014.8 |
| 20260504202245 | 55 | 221 | 12.0 | 21.0 | 0.00 | 0.07 | 0.07 | 43 | 1014.8 |
| 20260504201744 | 55 | 204 | 12.0 | 18.0 | 0.00 | 0.07 | 0.07 | 43 | 1014.8 |
| 20260504201515 | 54 | 174 | 12.0 | 22.0 | 0.00 | 0.07 | 0.07 | 44 | 1014.7 |
| 20260504200744 | 54 | 193 | 13.0 | 22.0 | 0.00 | 0.07 | 0.07 | 46 | 1014.7 |
| 20260504200238 | 54 | 215 | 13.0 | 24.0 | 0.00 | 0.07 | 0.07 | 45 | 1014.8 |
| 20260504195739 | 53 | 181 | 14.0 | 24.0 | 0.00 | 0.07 | 0.07 | 46 | 1014.7 |
| 20260504195238 | 53 | 202 | 14.0 | 22.0 | 0.00 | 0.07 | 0.07 | 47 | 1014.8 |
| 20260504194738 | 53 | 198 | 14.0 | 22.0 | 0.00 | 0.07 | 0.07 | 46 | 1014.8 |
| 20260504194237 | 53 | 196 | 15.0 | 23.0 | 0.00 | 0.07 | 0.07 | 47 | 1014.9 |
| 20260504193738 | 53 | 198 | 14.0 | 23.0 | 0.00 | 0.07 | 0.07 | 47 | 1014.8 |
| 20260504193235 | 54 | 210 | 12.0 | 20.0 | 0.00 | 0.07 | 0.07 | 46 | 1014.9 |
| 20260504192735 | 54 | 192 | 11.0 | 19.0 | 0.00 | 0.07 | 0.07 | 44 | 1014.9 |
| 20260504192234 | 54 | 188 | 8.0 | 17.0 | 0.00 | 0.07 | 0.07 | 44 | 1015.1 |
| 20260504192008 | 54 | 196 | 6.0 | 16.0 | 0.00 | 0.07 | 0.07 | 45 | 1015.3 |
| 20260504191235 | 54 | 235 | 6.0 | 18.0 | 0.00 | 0.07 | 0.07 | 42 | 1015.3 |
| 20260504190736 | 53 | 242 | 5.0 | 18.0 | 0.00 | 0.07 | 0.07 | 47 | 1015.2 |
| 20260504190508 | 53 | 167 | 3.0 | 9.0 | 0.00 | 0.07 | 0.07 | 49 | 1015.3 |
| 20260504185734 | 53 | 226 | 4.0 | 9.0 | 0.00 | 0.07 | 0.07 | 52 | 1015.5 |
| 20260504185730 | 53 | 96 | 3.0 | 9.0 | 0.00 | 0.07 | 0.07 | 48 | 1015.5 |
| 20260504184730 | 53 | 147 | 5.0 | 9.0 | 0.00 | 0.07 | 0.07 | 51 | 1015.5 |
| 20260504184230 | 53 | 293 | 5.0 | 17.0 | 0.00 | 0.07 | 0.07 | 53 | 1015.7 |
| 20260504183729 | 53 | 136 | 5.0 | 17.0 | 0.00 | 0.07 | 0.07 | 50 | 1015.7 |
| 20260504183230 | 53 | 153 | 5.0 | 14.0 | 0.00 | 0.07 | 0.07 | 53 | 1015.9 |
| 20260504182725 | 53 | 180 | 5.0 | 14.0 | 0.00 | 0.07 | 0.07 | 54 | 1016.0 |
| 20260504182225 | 53 | 246 | 6.0 | 13.0 | 0.00 | 0.07 | 0.07 | 55 | 1016.1 |
| 20260504181724 | 52 | 217 | 6.0 | 13.0 | 0.00 | 0.07 | 0.07 | 58 | 1016.0 |
| 20260504181225 | 51 | 161 | 4.0 | 9.0 | 0.00 | 0.07 | 0.07 | 58 | 1016.1 |
| 20260504180957 | 51 | 241 | 3.0 | 8.0 | 0.00 | 0.07 | 0.07 | 59 | 1016.3 |
| 20260504180458 | 51 | 182 | 3.0 | 7.0 | 0.00 | 0.07 | 0.07 | 61 | 1016.3 |
| 20260504175726 | 50 | 233 | 2.0 | 7.0 | 0.00 | 0.07 | 0.07 | 61 | 1016.4 |
| 20260504175450 | 49 | 184 | 2.0 | 7.0 | 0.00 | 0.07 | 0.07 | 63 | 1016.5 |
| 20260504174717 | 49 | 244 | 2.0 | 7.0 | 0.00 | 0.07 | 0.07 | 64 | 1016.6 |
| 20260504174217 | 48 | 173 | 3.0 | 7.0 | 0.00 | 0.07 | 0.07 | 68 | 1016.6 |
| 20260504173717 | 48 | 258 | 3.0 | 10.0 | 0.00 | 0.07 | 0.07 | 72 | 1016.9 |
| 20260504173217 | 48 | 246 | 3.0 | 10.0 | 0.00 | 0.07 | 0.07 | 73 | 1017.0 |
| 20260504172718 | 47 | 217 | 3.0 | 9.0 | 0.00 | 0.07 | 0.07 | 75 | 1017.0 |
| 20260504172215 | 47 | 196 | 3.0 | 9.0 | 0.00 | 0.07 | 0.07 | 77 | 1017.2 |
| 20260504171715 | 47 | 184 | 3.0 | 6.0 | 0.00 | 0.07 | 0.07 | 77 | 1017.0 |
| 20260504171216 | 47 | 205 | 3.0 | 5.0 | 0.00 | 0.07 | 0.07 | 79 | 1017.3 |
| 20260504170715 | 46 | 193 | 3.0 | 6.0 | 0.00 | 0.07 | 0.07 | 75 | 1017.2 |
| 20260504170213 | 46 | 200 | 2.0 | 6.0 | 0.00 | 0.07 | 0.07 | 77 | 1017.3 |
| 20260504160213 | 43 | 331 | 4.0 | 8.0 | 0.00 | 0.07 | 0.07 | 83 | 1018.0 |
| 20260504160208 | 43 | 21 | 4.0 | 9.0 | 0.00 | 0.07 | 0.07 | 82 | 1017.8 |
| 20260504150702 | 40 | 141 | 2.0 | 4.0 | 0.00 | 0.07 | 0.07 | 87 | 1018.5 |
| 20260504150201 | 40 | 159 | 2.0 | 4.0 | 0.00 | 0.07 | 0.07 | 86 | 1018.3 |
| 20260504141146 | 38 | 208 | 1.0 | 2.0 | 0.00 | 0.07 | 0.07 | 89 | 1018.7 |
| 20260504140645 | 38 | 208 | 1.0 | 3.0 | 0.00 | 0.07 | 0.07 | 89 | 1018.6 |
| 20260504140142 | 38 | 211 | 1.0 | 3.0 | 0.00 | 0.07 | 0.07 | 90 | 1018.6 |
| 20260504130634 | 36 | 184 | 3.0 | 6.0 | 0.00 | 0.07 | 0.07 | 93 | 1018.6 |
| 20260504130134 | 36 | 196 | 3.0 | 6.0 | 0.00 | 0.07 | 0.07 | 93 | 1018.7 |
| 20260504120126 | 35 | 209 | 2.0 | 3.0 | 0.00 | 0.07 | 0.07 | 92 | 1018.2 |
| 20260504110618 | 36 | 222 | 1.0 | 3.0 | 0.02 | 0.07 | 0.07 | 91 | 1018.6 |
| 20260504110117 | 36 | 236 | 0.0 | 0.0 | 0.02 | 0.07 | 0.07 | 91 | 1018.7 |
| 20260504100606 | 37 | 160 | 0.0 | 3.0 | 0.00 | 0.05 | 0.05 | 91 | 1018.7 |
| 20260504100104 | 37 | 192 | 0.0 | 3.0 | 0.00 | 0.05 | 0.05 | 91 | 1019.0 |